Weather History for Lansing, MI

Change the Weather History Date:

Wednesday, February 13, 2013

  Actual Average Record
Temperature  
Mean Temperature 32 °F 25 °F  
Max Temperature 40 °F 33 °F 59 °F (1876)
Min Temperature 24 °F 18 °F -25 °F (1875)
Degree Days  
Heating Degree Days 33 40  
Month to date heating degree days 560 528  
Since 1 July heating degree days 4117 4368  
Cooling Degree Days 0 0  
Month to date cooling degree days 0 0  
Year to date cooling degree days 0 0  
Moisture  
Dew Point 22 °F    
Average Humidity 68    
Maximum Humidity 81    
Minimum Humidity 54    
Precipitation  
Precipitation 0.00 in 0.05 in 1.97 in (1938)
Month to date precipitation 0.72 0.61  
Year to date precipitation 4.16 2.26  
Snow  
Snow 0.00 in 0.40 in 5.90 in (1946)
Month to date snowfall 7.1 5.6  
Since 1 July snowfall 17.5 36.2  
Snow Depth T in    
Sea Level Pressure  
Sea Level Pressure 29.83 in    
Wind  
Wind Speed 6 mph (SW)    
Max Wind Speed 15 mph    
Max Gust Speed 17 mph    
Visibility 9 miles    
Events      
T = Trace of Precipitation, MM = Missing Value Source: NWS Daily Summary

Daily Weather History Graph

Daily Weather History Graph

Search for Another Location

Airport:

Trip Planner

Search our weather history database for the weather conditions in past years. The results will help you decide how hot, cold, wet, or windy it might be!

Date:

Astronomy

Feb. 13, 2013 Rise Set
Actual Time 7:37 AM EST 6:07 PM EST
Civil Twilight 7:08 AM EST 6:36 PM EST
Nautical Twilight 6:35 AM EST 7:10 PM EST
Astronomical Twilight 6:02 AM EST 7:42 PM EST
Moon 9:00 AM EST (2/13) 10:17 PM EST (2/13)
Length of Visible Light 11h 28m
Length of Day
10h 29m
Waxing Crescent, 13% of the Moon is Illuminated
Feb 13
Waxing Crescent
Feb 17
First Quarter
Feb 25
Full
Mar 4
Last Quarter
Mar 11
New

Hourly Weather History & Observations

Time (EST) Temp. Windchill Dew Point Humidity Pressure Visibility Wind Dir Wind Speed Gust Speed Precip Events Conditions
12:53 AM 27.0 °F 18.0 °F 19.9 °F 75% 29.95 in 10.0 mi West 9.2 mph - N/A   Overcast
1:53 AM 27.0 °F 18.0 °F 19.9 °F 75% 29.94 in 10.0 mi West 9.2 mph - N/A   Overcast
2:53 AM 27.0 °F 17.3 °F 19.9 °F 75% 29.92 in 10.0 mi West 10.4 mph - N/A   Overcast
3:53 AM 27.0 °F 16.7 °F 19.9 °F 75% 29.91 in 10.0 mi West 11.5 mph - N/A   Overcast
4:00 AM 26.6 °F 18.2 °F 19.4 °F 74% 29.87 in 10.0 mi West 8.1 mph - N/A   Overcast
4:53 AM 26.1 °F 17.6 °F 19.9 °F 78% 29.89 in 10.0 mi West 8.1 mph - N/A   Overcast
5:53 AM 26.1 °F - 21.0 °F 81% 29.88 in 10.0 mi Calm Calm - N/A   Overcast
6:53 AM 26.1 °F 18.4 °F 19.9 °F 78% 29.87 in 10.0 mi South 6.9 mph - N/A   Overcast
7:53 AM 24.1 °F 16.0 °F 19.0 °F 81% 29.85 in 7.0 mi South 6.9 mph - N/A   Scattered Clouds
8:02 AM 24.8 °F 17.9 °F 19.4 °F 80% 29.81 in 7.0 mi South 5.8 mph - N/A   Mostly Cloudy
8:15 AM 24.8 °F 19.1 °F 19.4 °F 80% 29.81 in 7.0 mi South 4.6 mph - N/A   Scattered Clouds
8:53 AM 26.1 °F 19.4 °F 21.0 °F 81% 29.84 in 7.0 mi South 5.8 mph - N/A   Mostly Cloudy
9:49 AM 26.6 °F 19.1 °F 19.4 °F 74% 29.81 in 8.0 mi SW 6.9 mph - N/A   Overcast
9:53 AM 27.0 °F 20.5 °F 21.0 °F 78% 29.84 in 8.0 mi SSW 5.8 mph - N/A   Overcast
10:53 AM 28.9 °F 21.9 °F 21.9 °F 75% 29.83 in 8.0 mi SSW 6.9 mph - N/A   Overcast
11:53 AM 30.9 °F 23.5 °F 23.0 °F 72% 29.83 in 8.0 mi SW 8.1 mph - N/A   Overcast
12:19 PM 32.0 °F 23.6 °F 23.0 °F 69% 29.79 in 9.0 mi South 10.4 mph - N/A   Scattered Clouds
12:53 PM 34.0 °F 26.0 °F 24.1 °F 67% 29.80 in 9.0 mi South 10.4 mph - N/A   Clear
1:53 PM 37.0 °F 29.8 °F 25.0 °F 62% 29.77 in 10.0 mi WSW 10.4 mph - N/A   Clear
2:53 PM 37.9 °F 32.1 °F 25.0 °F 60% 29.75 in 10.0 mi SW 8.1 mph 17.3 mph N/A   Clear
3:53 PM 39.0 °F 32.8 °F 24.1 °F 55% 29.74 in 10.0 mi WSW 9.2 mph - N/A   Clear
4:53 PM 39.0 °F 34.8 °F 24.1 °F 55% 29.75 in 10.0 mi WSW 5.8 mph - N/A   Mostly Cloudy
5:53 PM 37.9 °F 32.1 °F 24.1 °F 57% 29.75 in 10.0 mi WSW 8.1 mph - N/A   Clear
6:53 PM 35.1 °F - 23.0 °F 61% 29.77 in 10.0 mi Calm Calm - N/A   Clear
7:53 PM 30.0 °F 26.5 °F 24.1 °F 79% 29.78 in 8.0 mi South 3.5 mph - N/A   Clear
8:53 PM 28.9 °F - 23.0 °F 78% 29.78 in 8.0 mi Calm Calm - N/A   Clear
9:53 PM 28.0 °F - 21.9 °F 78% 29.78 in 7.0 mi Calm Calm - N/A   Clear
10:53 PM 28.0 °F - 21.9 °F 78% 29.78 in 7.0 mi Calm Calm - N/A   Clear
11:53 PM 28.9 °F - 23.0 °F 78% 29.77 in 8.0 mi Calm Calm - N/A   Clear